| time (UTC) | temp C | wind direction | speed KPH | gust KPH | rain 1hr cm | rain 24hr cm | rain mn cm | humidity % | barometer mb |
| 20260504224005 | 12 | 270 | 0.0 | 0.0 | 0.00 | 0.00 | 0.00 | 85 | 1011.1 |
| 20260504223005 | 12 | 252 | 0.0 | 0.0 | 0.00 | 0.00 | 0.00 | 85 | 1011.2 |
| 20260504222005 | 12 | 269 | 0.0 | 0.0 | 0.00 | 0.00 | 0.00 | 84 | 1011.2 |
| 20260504221005 | 12 | 270 | 0.0 | 0.0 | 0.00 | 0.00 | 0.00 | 85 | 1011.1 |
| 20260504220005 | 13 | 357 | 0.0 | 0.0 | 0.00 | 0.00 | 0.00 | 81 | 1011.2 |
| 20260504215005 | 13 | 26 | 0.0 | 0.0 | 0.00 | 0.00 | 0.00 | 81 | 1011.2 |
| 20260504214005 | 13 | 71 | 0.0 | 0.0 | 0.00 | 0.00 | 0.00 | 81 | 1011.2 |
| 20260504212005 | 13 | 356 | 0.0 | 0.0 | 0.00 | 0.00 | 0.00 | 79 | 1011.1 |
| 20260504211005 | 13 | 351 | 0.0 | 0.0 | 0.00 | 0.00 | 0.00 | 78 | 1011.1 |
| 20260504205005 | 14 | 10 | 0.0 | 8.0 | 0.00 | 0.00 | 0.00 | 74 | 1010.8 |
| 20260504204005 | 14 | 38 | 1.6 | 8.0 | 0.00 | 0.00 | 0.00 | 74 | 1010.7 |
| 20260504203005 | 14 | 338 | 0.0 | 0.0 | 0.00 | 0.00 | 0.00 | 73 | 1010.6 |
| 20260504202006 | 14 | 0 | 0.0 | 9.7 | 0.00 | 0.00 | 0.00 | 72 | 1010.5 |
| 20260504201007 | 15 | 287 | 0.0 | 1.6 | 0.00 | 0.00 | 0.00 | 73 | 1010.4 |
| 20260504200005 | 15 | 279 | 0.0 | 1.6 | 0.00 | 0.00 | 0.00 | 72 | 1010.3 |
| 20260504195005 | 15 | 320 | 0.0 | 1.6 | 0.00 | 0.00 | 0.00 | 70 | 1010.2 |
| 20260504194005 | 15 | 356 | 3.2 | 9.7 | 0.00 | 0.00 | 0.00 | 68 | 1010.1 |
| 20260504191006 | 16 | 300 | 14.5 | 20.9 | 0.00 | 0.00 | 0.00 | 59 | 1009.7 |
| 20260504190005 | 17 | 338 | 14.5 | 19.3 | 0.00 | 0.00 | 0.00 | 54 | 1009.4 |
| 20260504185006 | 17 | 302 | 14.5 | 19.3 | 0.00 | 0.00 | 0.00 | 54 | 1009.5 |
| 20260504184005 | 17 | 320 | 14.5 | 22.5 | 0.00 | 0.00 | 0.00 | 54 | 1009.5 |
| 20260504183005 | 18 | 313 | 17.7 | 22.5 | 0.00 | 0.00 | 0.00 | 53 | 1009.4 |
| 20260504182005 | 18 | 324 | 20.9 | 25.7 | 0.00 | 0.00 | 0.00 | 51 | 1009.4 |
| 20260504180005 | 19 | 328 | 14.5 | 16.1 | 0.00 | 0.00 | 0.00 | 49 | 1009.4 |
| 20260504173005 | 20 | 338 | 14.5 | 22.5 | 0.00 | 0.00 | 0.00 | 46 | 1009.3 |
| 20260504082006 | 17 | 314 | 4.8 | 9.7 | 0.00 | 0.00 | 0.00 | 71 | 1009.6 |
| 20260504050005 | 11 | 202 | 0.0 | 0.0 | 0.00 | 0.00 | 0.00 | 98 | 1008.3 |
| 20260504045005 | 11 | 215 | 0.0 | 3.2 | 0.00 | 0.00 | 0.00 | 97 | 1008.3 |
| 20260504044006 | 11 | 195 | 0.0 | 4.8 | 0.00 | 0.00 | 0.00 | 97 | 1008.3 |
| 20260504043005 | 11 | 201 | 0.0 | 8.0 | 0.00 | 0.00 | 0.00 | 97 | 1008.3 |
| 20260504042006 | 11 | 200 | 1.6 | 8.0 | 0.00 | 0.00 | 0.00 | 97 | 1008.2 |
| 20260504041005 | 11 | 198 | 3.2 | 8.0 | 0.00 | 0.00 | 0.00 | 97 | 1008.2 |
| 20260504040005 | 11 | 202 | 0.0 | 8.0 | 0.00 | 0.00 | 0.00 | 97 | 1008.1 |
| 20260504035006 | 11 | 202 | 3.2 | 8.0 | 0.00 | 0.00 | 0.00 | 97 | 1008.2 |
| 20260504034005 | 11 | 186 | 1.6 | 8.0 | 0.00 | 0.00 | 0.00 | 97 | 1008.2 |
| 20260504033005 | 11 | 217 | 3.2 | 9.7 | 0.00 | 0.00 | 0.00 | 96 | 1008.2 |
| 20260504032005 | 11 | 196 | 3.2 | 8.0 | 0.00 | 0.00 | 0.00 | 96 | 1008.3 |
| 20260504031006 | 11 | 185 | 1.6 | 8.0 | 0.00 | 0.00 | 0.00 | 96 | 1008.1 |
| 20260504030005 | 11 | 180 | 3.2 | 8.0 | 0.00 | 0.00 | 0.00 | 96 | 1008.2 |
| 20260504025006 | 11 | 191 | 0.0 | 3.2 | 0.00 | 0.00 | 0.00 | 96 | 1008.3 |
| 20260504024005 | 11 | 180 | 0.0 | 3.2 | 0.00 | 0.00 | 0.00 | 97 | 1008.3 |
| 20260504023005 | 11 | 168 | 0.0 | 0.0 | 0.00 | 0.00 | 0.00 | 97 | 1008.3 |
| 20260504022005 | 11 | 132 | 1.6 | 4.8 | 0.00 | 0.00 | 0.00 | 97 | 1008.3 |
| 20260504021005 | 11 | 180 | 0.0 | 0.0 | 0.00 | 0.00 | 0.00 | 97 | 1008.4 |
| 20260504015005 | 11 | 180 | 0.0 | 1.6 | 0.00 | 0.00 | 0.00 | 97 | 1008.4 |
| 20260504013005 | 11 | 192 | 0.0 | 4.8 | 0.00 | 0.00 | 0.00 | 97 | 1008.5 |
| 20260504012005 | 11 | 225 | 0.0 | 0.0 | 0.00 | 0.00 | 0.00 | 97 | 1008.6 |
| 20260504011005 | 11 | 202 | 0.0 | 0.0 | 0.00 | 0.00 | 0.00 | 97 | 1008.6 |
| 20260504010005 | 11 | 147 | 0.0 | 0.0 | 0.00 | 0.00 | 0.00 | 96 | 1008.7 |
| 20260504005005 | 12 | 180 | 0.0 | 0.0 | 0.00 | 0.00 | 0.00 | 95 | 1008.6 |
| 20260504004005 | 12 | 170 | 0.0 | 4.8 | 0.00 | 0.00 | 0.00 | 95 | 1008.6 |
| 20260504003005 | 11 | 205 | 0.0 | 3.2 | 0.00 | 0.00 | 0.00 | 95 | 1008.7 |
| 20260504002005 | 11 | 135 | 0.0 | 0.0 | 0.00 | 0.00 | 0.00 | 94 | 1008.7 |
| 20260504001007 | 12 | 158 | 0.0 | 0.0 | 0.00 | 0.00 | 0.00 | 94 | 1008.7 |
| 20260504000005 | 12 | 158 | 0.0 | 0.0 | 0.00 | 0.00 | 0.00 | 94 | 1008.8 |
| 20260503235005 | 12 | 88 | 0.0 | 0.0 | 0.00 | 0.00 | 0.00 | 92 | 1008.8 |
| 20260503234005 | 12 | 158 | 0.0 | 0.0 | 0.00 | 0.00 | 0.00 | 91 | 1008.8 |
| 20260503233005 | 12 | 158 | 0.0 | 0.0 | 0.00 | 0.00 | 0.00 | 92 | 1008.7 |
| 20260503232007 | 12 | 112 | 0.0 | 0.0 | 0.00 | 0.00 | 0.00 | 90 | 1008.7 |
| 20260503231006 | 12 | 158 | 0.0 | 0.0 | 0.00 | 0.00 | 0.00 | 91 | 1008.8 |
| 20260503230006 | 12 | 112 | 0.0 | 0.0 | 0.00 | 0.00 | 0.00 | 90 | 1008.7 |
| 20260503225006 | 12 | 112 | 0.0 | 0.0 | 0.00 | 0.00 | 0.00 | 90 | 1008.8 |